EN

Hourly Weather Acacoyagua

Today, 29 November, Sunday

Time Temperature Precipitation Wind Pressure Humidity
00:00 +25°C° 0 mm 1 mps 742 mmHg 91%
01:00 +25°C° 0.2 mm 1 mps 742 mmHg 91%
02:00 +25°C° 0.2 mm 1 mps 741 mmHg 90%
03:00 +25°C° 0.2 mm 1 mps 741 mmHg 90%
04:00 +25°C° 0 mm 1 mps 741 mmHg 89%
05:00 +25°C° 0 mm 1 mps 741 mmHg 89%
06:00 +25°C° 0 mm 1 mps 742 mmHg 88%
07:00 +26°C° 0 mm 1 mps 742 mmHg 83%
08:00 +26°C° 0 mm 0 mps 743 mmHg 77%
09:00 +28°C° 0 mm 0 mps 743 mmHg 72%
10:00 +30°C° 0.2 mm 1 mps 743 mmHg 73%
11:00 +31°C° 0.2 mm 1 mps 742 mmHg 73%
12:00 +31°C° 0.2 mm 1 mps 742 mmHg 74%
13:00 +31°C° 0.6 mm 1 mps 741 mmHg 76%
14:00 +30°C° 0.6 mm 1 mps 741 mmHg 78%
15:00 +30°C° 0.6 mm 1 mps 741 mmHg 80%
16:00 +28°C° 0.6 mm 1 mps 741 mmHg 84%
17:00 +27°C° 0.6 mm 1 mps 741 mmHg 88%
18:00 +24°C° 0.6 mm 0 mps 742 mmHg 91%
19:00 +24°C° 0.1 mm 0 mps 742 mmHg 91%
20:00 +25°C° 0.1 mm 1 mps 743 mmHg 91%
21:00 +25°C° 0.1 mm 1 mps 744 mmHg 91%
22:00 +25°C° 0 mm 1 mps 744 mmHg 90%
23:00 +25°C° 0 mm 1 mps 744 mmHg 90%

Tomorrow, 30 November, Monday

Time Temperature Precipitation Wind Pressure Humidity
00:00 +25°C° 0 mm 1 mps 743 mmHg 90%
01:00 +25°C° 0 mm 1 mps 743 mmHg 89%
02:00 +24°C° 0 mm 1 mps 743 mmHg 88%
03:00 +24°C° 0 mm 1 mps 742 mmHg 87%
04:00 +25°C° 0 mm 1 mps 742 mmHg 87%
05:00 +25°C° 0 mm 1 mps 743 mmHg 86%
06:00 +25°C° 0 mm 1 mps 743 mmHg 85%
07:00 +26°C° 0 mm 1 mps 743 mmHg 81%
08:00 +28°C° 0 mm 1 mps 744 mmHg 77%
09:00 +29°C° 0 mm 1 mps 744 mmHg 73%
10:00 +30°C° 0 mm 1 mps 744 mmHg 68%
11:00 +31°C° 0 mm 1 mps 743 mmHg 64%
12:00 +32°C° 0 mm 2 mps 743 mmHg 59%
13:00 +32°C° 0.2 mm 2 mps 742 mmHg 62%
14:00 +31°C° 0.2 mm 2 mps 741 mmHg 66%
15:00 +31°C° 0.2 mm 1 mps 741 mmHg 69%
16:00 +29°C° 0.4 mm 1 mps 741 mmHg 76%
17:00 +28°C° 0.4 mm 1 mps 742 mmHg 82%
18:00 +26°C° 0.4 mm 1 mps 742 mmHg 89%
19:00 +26°C° 0.2 mm 1 mps 743 mmHg 88%
20:00 +25°C° 0.2 mm 2 mps 743 mmHg 86%
21:00 +25°C° 0.2 mm 2 mps 744 mmHg 85%
22:00 +25°C° 0 mm 2 mps 744 mmHg 84%
23:00 +25°C° 0 mm 2 mps 744 mmHg 83%

Day after tomorrow, 1 December, Tuesday

Time Temperature Precipitation Wind Pressure Humidity
00:00 +25°C° 0 mm 2 mps 744 mmHg 82%
01:00 +25°C° 0 mm 2 mps 743 mmHg 81%
02:00 +25°C° 0 mm 2 mps 743 mmHg 80%
03:00 +25°C° 0 mm 2 mps 743 mmHg 80%
04:00 +24°C° 0 mm 2 mps 743 mmHg 79%
05:00 +24°C° 0 mm 2 mps 743 mmHg 79%
06:00 +24°C° 0 mm 2 mps 744 mmHg 79%
07:00 +26°C° 0 mm 2 mps 744 mmHg 75%
08:00 +27°C° 0 mm 1 mps 744 mmHg 70%
09:00 +28°C° 0 mm 1 mps 745 mmHg 66%
10:00 +29°C° 0 mm 1 mps 744 mmHg 62%
11:00 +31°C° 0 mm 1 mps 744 mmHg 58%
12:00 +32°C° 0 mm 2 mps 743 mmHg 53%
13:00 +32°C° 0 mm 2 mps 743 mmHg 56%
14:00 +31°C° 0 mm 2 mps 742 mmHg 58%
15:00 +31°C° 0 mm 2 mps 741 mmHg 60%
16:00 +29°C° 0 mm 1 mps 742 mmHg 68%
17:00 +27°C° 0 mm 1 mps 742 mmHg 75%
18:00 +25°C° 0 mm 1 mps 742 mmHg 83%
19:00 +25°C° 0 mm 1 mps 742 mmHg 81%
20:00 +25°C° 0 mm 1 mps 743 mmHg 79%
21:00 +24°C° 0 mm 2 mps 743 mmHg 77%
22:00 +24°C° 0 mm 2 mps 743 mmHg 76%
23:00 +24°C° 0 mm 1 mps 743 mmHg 75%

2 December, Wednesday

Time Temperature Precipitation Wind Pressure Humidity
00:00 +24°C° 0 mm 1 mps 743 mmHg 74%
01:00 +24°C° 0 mm 1 mps 743 mmHg 73%
02:00 +23°C° 0 mm 1 mps 742 mmHg 72%
03:00 +23°C° 0 mm 1 mps 742 mmHg 71%
04:00 +23°C° 0 mm 1 mps 742 mmHg 71%
05:00 +23°C° 0 mm 1 mps 742 mmHg 71%
06:00 +23°C° 0 mm 1 mps 743 mmHg 70%
07:00 +25°C° 0 mm 1 mps 743 mmHg 65%
08:00 +27°C° 0 mm 1 mps 743 mmHg 60%
09:00 +28°C° 0 mm 0 mps 744 mmHg 55%
10:00 +30°C° 0 mm 1 mps 743 mmHg 54%
11:00 +31°C° 0 mm 1 mps 743 mmHg 53%
12:00 +32°C° 0 mm 1 mps 742 mmHg 52%
13:00 +32°C° 0.1 mm 1 mps 742 mmHg 57%
14:00 +31°C° 0.1 mm 1 mps 741 mmHg 61%
15:00 +31°C° 0.1 mm 2 mps 741 mmHg 66%
16:00 +29°C° 0.1 mm 1 mps 741 mmHg 73%
17:00 +27°C° 0.1 mm 1 mps 741 mmHg 81%
18:00 +26°C° 0.1 mm 1 mps 742 mmHg 88%
19:00 +25°C° 0 mm 1 mps 742 mmHg 86%
20:00 +25°C° 0 mm 1 mps 743 mmHg 84%
21:00 +24°C° 0 mm 1 mps 743 mmHg 82%
22:00 +24°C° 0 mm 1 mps 743 mmHg 80%
23:00 +24°C° 0 mm 1 mps 743 mmHg 78%

3 December, Thursday

Time Temperature Precipitation Wind Pressure Humidity
00:00 +24°C° 0 mm 1 mps 743 mmHg 76%
01:00 +23°C° 0 mm 1 mps 742 mmHg 76%
02:00 +23°C° 0 mm 1 mps 742 mmHg 75%
03:00 +23°C° 0 mm 1 mps 742 mmHg 75%
04:00 +23°C° 0 mm 1 mps 742 mmHg 74%
05:00 +23°C° 0 mm 1 mps 742 mmHg 73%
06:00 +23°C° 0 mm 1 mps 742 mmHg 73%
07:00 +25°C° 0 mm 1 mps 743 mmHg 68%
08:00 +27°C° 0 mm 1 mps 743 mmHg 64%
09:00 +27°C° 0 mm 0 mps 743 mmHg 59%
10:00 +30°C° 0 mm 1 mps 743 mmHg 57%
11:00 +31°C° 0 mm 1 mps 742 mmHg 55%
12:00 +32°C° 0 mm 1 mps 742 mmHg 53%
13:00 +32°C° 0 mm 1 mps 741 mmHg 56%
14:00 +31°C° 0 mm 1 mps 741 mmHg 59%
15:00 +31°C° 0 mm 1 mps 741 mmHg 62%
16:00 +29°C° 0.2 mm 1 mps 741 mmHg 71%
17:00 +27°C° 0.2 mm 1 mps 741 mmHg 80%
18:00 +26°C° 0.2 mm 1 mps 742 mmHg 89%
19:00 +25°C° 0 mm 1 mps 742 mmHg 88%
20:00 +25°C° 0 mm 1 mps 743 mmHg 87%
21:00 +25°C° 0 mm 1 mps 743 mmHg 86%
22:00 +25°C° 0 mm 1 mps 743 mmHg 85%
23:00 +25°C° 0 mm 1 mps 743 mmHg 84%

4 December, Friday

Time Temperature Precipitation Wind Pressure Humidity
00:00 +25°C° 0 mm 1 mps 743 mmHg 83%
01:00 +25°C° 0 mm 1 mps 743 mmHg 82%
02:00 +25°C° 0 mm 2 mps 742 mmHg 81%
03:00 +25°C° 0 mm 2 mps 742 mmHg 80%
04:00 +25°C° 0 mm 2 mps 742 mmHg 80%
05:00 +25°C° 0 mm 2 mps 742 mmHg 79%
06:00 +25°C° 0 mm 2 mps 742 mmHg 79%
07:00 +26°C° 0 mm 1 mps 743 mmHg 76%
08:00 +28°C° 0 mm 1 mps 743 mmHg 72%
09:00 +29°C° 0 mm 1 mps 743 mmHg 69%
10:00 +30°C° 0 mm 1 mps 743 mmHg 66%
11:00 +31°C° 0 mm 1 mps 743 mmHg 62%
12:00 +32°C° 0 mm 2 mps 742 mmHg 59%
13:00 +32°C° 0.1 mm 2 mps 742 mmHg 61%
14:00 +32°C° 0.1 mm 2 mps 741 mmHg 63%
15:00 +31°C° 0.1 mm 1 mps 741 mmHg 65%
16:00 +30°C° 0.4 mm 2 mps 741 mmHg 72%
17:00 +28°C° 0.4 mm 2 mps 742 mmHg 79%
18:00 +26°C° 0.4 mm 2 mps 742 mmHg 86%
19:00 +26°C° 0.4 mm 2 mps 743 mmHg 86%
20:00 +26°C° 0.4 mm 2 mps 743 mmHg 86%
21:00 +25°C° 0.4 mm 2 mps 744 mmHg 86%
22:00 +25°C° 0 mm 2 mps 744 mmHg 84%
23:00 +25°C° 0 mm 2 mps 744 mmHg 83%
Show more